Location: Bottenau
(48.5138°N, 8.0462°E)
Time: 17:09:16
(UTC+00:00)

FALCON 9 DEB - Pass Details

Date: 18 April 2021
Orbit: 422 x 435 km, 53.0° (Epoch: 07 May)

Event Time Altitude Azimuth Distance (km) Brightness Sun altitude
Rises 19:08:01 0° 209° (SSW) 2,373 6.9 -7.6°
Reaches altitude 10° 19:10:19 10° 196° (SSW) 1,514 5.8 -8.0°
Maximum altitude 19:13:10 25° 139° (SE) 908 4.2 -8.4°
Drops below altitude 10° 19:16:02 10° 82° (E) 1,529 5.4 -8.8°
Enters shadow 19:16:54 - 76° (ENE) 1,838 5.9 -8.9°
